FW8095 Weather Reports


Display with metric or nautical units.
time (UTC)temp
F
wind
direction
speed
MPH
gust
MPH
rain 1hr
in
rain 24hr
in
rain mn
in
humidity
%
barometer
mb
20260903050045 80 0 0.0 0.0 0.00 0.00 0.00 79 1017.4
20260903044540 81 0 0.0 0.0 0.00 0.00 0.00 79 1017.4
20260903043046 81 0 0.0 0.0 0.00 0.00 0.00 78 1017.3
20260903041546 81 0 0.0 0.0 0.00 0.00 0.00 77 1017.5
20260903040040 82 0 0.0 0.0 0.00 0.00 0.00 76 1017.4
20260903034546 82 0 0.0 0.0 0.00 0.00 0.00 75 1017.5
20260903033051 83 0 0.0 0.0 0.00 0.00 0.00 75 1017.4
20260903031550 83 0 0.0 0.0 0.00 0.00 0.00 74 1017.4
20260903030106 83 0 0.0 0.0 0.00 0.00 0.00 73 1017.4
20260903024548 83 0 0.0 0.0 0.00 0.00 0.00 73 1017.3
20260903023046 83 0 0.0 0.0 0.00 0.00 0.00 71 1017.5
20260903021545 84 0 0.0 0.0 0.00 0.00 0.00 70 1017.3
20260903020041 84 0 0.0 0.0 0.00 0.00 0.00 69 1017.2
20260903014555 85 0 0.0 0.0 0.00 0.00 0.00 69 1017.2
20260903013047 86 0 0.0 0.0 0.00 0.00 0.00 67 1016.8
20260903011552 86 0 0.0 0.0 0.00 0.00 0.00 65 1016.6
20260903010059 87 0 0.0 0.0 0.00 0.00 0.00 64 1016.4
20260903004546 87 0 0.0 0.0 0.00 0.00 0.00 64 1016.5
20260903003044 88 0 0.0 0.0 0.00 0.00 0.00 63 1016.4
20260903001542 88 0 0.0 0.0 0.00 0.00 0.00 62 1016.4
20260903000041 89 0 0.0 0.0 0.00 0.00 0.00 60 1016.5
20260902234546 90 0 0.0 0.0 0.00 0.00 0.00 59 1016.3
20260902233046 91 0 0.0 0.0 0.00 0.00 0.00 57 1016.4
20260902231600 92 0 0.0 3.0 0.00 0.00 0.00 55 1016.3
20260902230048 92 0 0.0 3.0 0.00 0.00 0.00 56 1016.2
20260902224558 92 0 0.0 1.0 0.00 0.00 0.00 57 1016.2
20260902223050 92 0 0.0 0.0 0.00 0.00 0.00 56 1016.3
20260902221600 93 0 0.0 1.0 0.00 0.00 0.00 53 1016.6
20260902220058 94 0 0.0 1.0 0.00 0.00 0.00 51 1016.5
20260902214543 94 314 0.0 4.0 0.00 0.00 0.00 51 1016.5
20260902213041 95 0 0.0 4.0 0.00 0.00 0.00 51 1016.3
20260902211547 95 83 0.0 3.0 0.00 0.00 0.00 49 1016.5
20260902210047 95 0 0.0 4.0 0.00 0.00 0.00 48 1016.5
20260902204549 95 0 1.0 4.0 0.00 0.00 0.00 49 1016.6
20260902203043 96 108 0.0 5.0 0.00 0.00 0.00 49 1016.8
20260902201554 96 0 0.0 2.0 0.00 0.00 0.00 49 1016.9
20260902200048 97 0 0.0 6.0 0.00 0.00 0.00 48 1017.1
20260902194545 97 110 0.0 3.0 0.00 0.00 0.00 47 1017.3
20260902193100 99 96 0.0 8.0 0.00 0.00 0.00 47 1017.6
20260902191545 99 245 2.0 4.0 0.00 0.00 0.00 45 1017.8
20260902190043 99 124 1.0 4.0 0.00 0.00 0.00 47 1018.0
20260902184606 98 0 1.0 3.0 0.00 0.00 0.00 48 1018.3
20260902183056 100 0 1.0 4.0 0.00 0.00 0.00 46 1018.5
20260902181550 99 119 1.0 6.0 0.00 0.00 0.00 46 1018.7
20260902180044 99 126 1.0 6.0 0.00 0.00 0.00 48 1018.8
20260902174541 100 118 1.0 4.0 0.00 0.00 0.00 47 1018.8
20260902173047 99 96 1.0 4.0 0.00 0.00 0.00 48 1019.1
20260902171553 97 0 0.0 4.0 0.00 0.00 0.00 51 1019.4
20260902170045 98 95 1.0 4.0 0.00 0.00 0.00 51 1019.6
20260902164543 97 91 2.0 4.0 0.00 0.00 0.00 52 1019.8
20260902163056 97 18 1.0 4.0 0.00 0.00 0.00 51 1020.0
20260902161545 97 262 1.0 4.0 0.00 0.00 0.00 51 1020.2
20260902160039 96 261 1.0 3.0 0.00 0.00 0.00 52 1020.4
20260902154549 96 116 1.0 3.0 0.00 0.00 0.00 53 1020.3
20260902153053 96 309 1.0 2.0 0.00 0.00 0.00 54 1020.4
20260902151542 94 288 0.0 2.0 0.00 0.00 0.00 57 1020.5
20260902150047 94 304 1.0 2.0 0.00 0.00 0.00 60 1020.3
20260902144545 92 288 0.0 1.0 0.00 0.00 0.00 64 1020.3
20260902143044 90 0 0.0 2.0 0.00 0.00 0.00 70 1020.3
20260902141539 88 135 0.0 3.0 0.00 0.00 0.00 71 1020.4
20260902140045 86 0 0.0 1.0 0.00 0.00 0.00 74 1020.3
20260902134552 83 0 0.0 1.0 0.00 0.00 0.00 77 1020.3
20260902133047 81 0 0.0 1.0 0.00 0.00 0.00 82 1020.4
20260902131546 80 0 0.0 1.0 0.00 0.00 0.00 85 1020.3
20260902130043 78 136 0.0 1.0 0.00 0.00 0.00 87 1020.1
20260902124548 77 0 0.0 0.0 0.00 0.00 0.00 90 1020.1
20260902123053 76 0 0.0 0.0 0.00 0.00 0.00 91 1020.1
20260902121544 75 0 0.0 0.0 0.00 0.00 0.00 93 1020.0
20260902120043 75 0 0.0 0.0 0.00 0.00 0.00 93 1020.0
20260902114546 74 0 0.0 0.0 0.00 0.00 0.00 93 1019.8
20260902113044 74 0 0.0 0.0 0.00 0.00 0.00 93 1019.7
20260902111543 74 0 0.0 0.0 0.00 0.00 0.00 92 1019.6
20260902110047 75 0 0.0 0.0 0.00 0.00 0.00 92 1019.4
20260902104545 75 0 0.0 0.0 0.00 0.00 0.00 92 1019.3
20260902103045 75 0 0.0 0.0 0.00 0.00 0.00 91 1019.3
20260902101538 75 0 0.0 0.0 0.00 0.00 0.00 91 1019.1
20260902100047 75 0 0.0 0.0 0.00 0.00 0.00 91 1019.1
20260902094545 75 0 0.0 0.0 0.00 0.00 0.00 90 1018.9
20260902093040 75 0 0.0 0.0 0.00 0.00 0.00 89 1018.8
20260902091547 75 0 0.0 0.0 0.00 0.00 0.00 89 1018.7
20260902090045 76 0 0.0 0.0 0.00 0.00 0.00 88 1018.5
20260902084546 76 0 0.0 0.0 0.00 0.00 0.00 87 1018.4
20260902083041 76 0 0.0 0.0 0.00 0.00 0.00 87 1018.3
20260902081547 76 0 0.0 0.0 0.00 0.00 0.00 86 1018.2
20260902080046 76 0 0.0 0.0 0.00 0.00 0.00 86 1018.2
20260902074554 77 0 0.0 0.0 0.00 0.00 0.00 85 1018.2
20260902073042 77 0 0.0 0.0 0.00 0.00 0.00 85 1018.2
20260902071548 77 0 0.0 0.0 0.00 0.00 0.00 85 1018.2
20260902070051 77 0 0.0 0.0 0.00 0.00 0.00 86 1018.2
20260902064546 77 0 0.0 0.0 0.00 0.00 0.00 86 1018.3
20260902063046 78 0 0.0 0.0 0.00 0.00 0.00 86 1018.3
20260902061558 78 0 0.0 0.0 0.00 0.00 0.00 85 1018.4
20260902060056 78 0 0.0 0.0 0.00 0.00 0.00 85 1018.3
20260902054604 78 0 0.0 0.0 0.00 0.00 0.00 85 1018.3
20260902053052 78 0 0.0 0.0 0.00 0.00 0.00 84 1018.4
20260902051547 78 0 0.0 0.0 0.00 0.00 0.00 83 1018.3